This demonstration page uses our WeatherBlox Daily Observations layout. Learn more.

Left ArrowRight Arrow

39.01783, -85.05884

Hourly Observations for October 23, 2019

Temp ( °F °C ) Dew Point ( °F °C ) Humidity (%) Winds ( mph kmh ) Pressure ( in mb ) Visibility ( mi km ) Precip ( " mm )
12:52 am 00:52 Mostly Clear 49 9.4 38 3.3 66 66 SSW 6 9 29.95 1014 10 16 0.00 0.00
1:52 am 01:52 Clear 48 8.9 37 2.8 66 66 SW 8 13 29.96 1015 10 16 0.00 0.00
2:52 am 02:52 Clear 47 8.3 36 2.2 66 66 SW 7 11 29.98 1015 10 16 0.00 0.00
3:52 am 03:52 Clear 45 7.2 35 1.7 68 68 SW 7 11 29.98 1015 10 16 0.00 0.00
4:52 am 04:52 Clear 43 6.1 34 1.1 71 71 SW 7 11 30.01 1016 10 16 0.00 0.00
5:52 am 05:52 Clear 41 5 33 0.6 73 73 SSW 8 13 30.03 1017 10 16 0.00 0.00
6:52 am 06:52 Clear 40 4.4 32 0 73 73 SW 7 11 30.05 1018 10 16 0.00 0.00
7:52 am 07:52 Clear 41 5 32 0 70 70 SSW 7 11 30.06 1018 10 16 0.00 0.00
8:52 am 08:52 Sunny 43 6.1 34 1.1 71 71 SSW 8 13 30.09 1019 10 16 0.00 0.00
9:52 am 09:52 Sunny 48 8.9 34 1.1 58 58 SW 12 19 30.11 1020 10 16 0.00 0.00
10:52 am 10:52 Sunny 53 11.7 33 0.6 47 47 SW 10 17 30.13 1020 10 16 0.00 0.00
11:52 am 11:52 Sunny 56 13.3 31 -0.6 39 39 SW 10 17 30.14 1021 10 16 0.00 0.00
12:52 pm 12:52 Sunny 60 15.6 29 -1.7 31 31 W 12 19 30.13 1020 10 16 0.00 0.00
1:52 pm 13:52 Mostly Sunny 63 17.2 29 -1.7 28 28 SW 13 20 30.12 1020 10 16 0.00 0.00
2:52 pm 14:52 Sunny 64 17.8 29 -1.7 27 27 SSW 10 17 30.10 1019 10 16 0.00 0.00
3:52 pm 15:52 Mostly Sunny 65 18.3 30 -1.1 27 27 S 17 28 30.09 1019 10 16 0.00 0.00
4:52 pm 16:52 Mostly Sunny 64 17.8 30 -1.1 28 28 S 14 22 30.09 1019 10 16 0.00 0.00
5:52 pm 17:52 Partly Cloudy 62 16.7 30 -1.1 30 30 SSW 12 19 30.09 1019 10 16 0.00 0.00
6:52 pm 18:52 Partly Cloudy 57 13.9 32 0 39 39 S 8 13 30.11 1020 10 16 0.00 0.00
7:52 pm 19:52 Partly Cloudy 55 12.8 32 0 42 42 S 6 9 30.13 1020 10 16 0.00 0.00
8:52 pm 20:52 Clear 53 11.7 33 0.6 47 47 S 8 13 30.14 1021 10 16 0.00 0.00
9:52 pm 21:52 Partly Cloudy 52 11.1 33 0.6 49 49 S 9 15 30.14 1021 10 16 0.00 0.00
10:52 pm 22:52 Mostly Clear 53 11.7 33 0.6 47 47 S 13 20 30.13 1020 10 16 0.00 0.00
11:52 pm 23:52 Partly Cloudy 54 12.2 32 0 43 43 S 12 19 30.12 1020 10 16 0.00 0.00

Powered by AerisWeather